Regional Weather Roundup
Issued by NWS Raleigh/Durham, NC

Home | Current Version | Previous Version | Text Only | Print | Product List | Glossary On
Versions: 1 2 3 4 5 6 7 8 9 10 11 12 13 14 15 16 17 18 19 20 21 22 23 24 25 26 27 28 29 30 31 32 33 34 35 36 37 38 39 40 41 42 43 44 45 46 47 48 49 50
000
ASUS42 KRAH 191310
RWRRAH
NORTH CAROLINA WEATHER ROUNDUP
NATIONAL WEATHER SERVICE RALEIGH NC
800 AM EST FRI JAN 19 2018

NOTE: "FAIR" INDICATES FEW OR NO CLOUDS BELOW 12,000 FEET WITH NO
SIGNIFICANT WEATHER AND/OR OBSTRUCTIONS TO VISIBILITY.

NCZ001-053-055-056-065-067-191400-
WESTERN NORTH CAROLINA

CITY           SKY/WX    TMP DP  RH WIND       PRES   REMARKS
ASHEVILLE      FAIR      27   7  42 VRB5      30.23R WCI  22
JEFFERSON      FAIR      32 -12  14 W8G20     30.14S WCI  25
MORGANTON      FAIR      18  16  93 CALM      30.24S
HICKORY        FAIR      20  18  92 N6        30.20R WCI  12
RUTHERFORDTON  FAIR      22  18  85 NW5       30.22S WCI  15
MOUNT AIRY     FAIR      22  10  58 CALM      30.21S
BOONE          FAIR      29  -8  20 W9        30.17F WCI  20
$$

NCZ021-022-025-041-071-084-088-191400-
CENTRAL NORTH CAROLINA

CITY           SKY/WX    TMP DP  RH WIND       PRES   REMARKS
CHARLOTTE      FAIR      26  22  84 CALM      30.23R
GREENSBORO     FAIR      24  11  57 CALM      30.20R
WINSTON-SALEM  FAIR      26  13  57 CALM      30.22R
RALEIGH-DURHAM FAIR      22  20  92 CALM      30.23R
FORT BRAGG     FAIR      24  21  88 CALM      30.23R
FAYETTEVILLE   FAIR      26  20  77 SW5       30.24R WCI  20
BURLINGTON     FAIR      24  19  81 SW6       30.21R WCI  17
LAURINBURG     FAIR      22  19  89 CALM      30.25S
$$

NCZ011-015-027-028-043-044-047-080-103-191400-
NORTHEASTERN NORTH CAROLINA

CITY           SKY/WX    TMP DP  RH WIND       PRES   REMARKS
ROCKY MT-WILSO NOT AVBL
GREENVILLE     FAIR      30  23  74 CALM      30.23R
WASHINGTON     FAIR      29  23  78 SW5       30.22S WCI  24
ELIZABETH CITY FAIR      27  23  85 SW7       30.19R WCI  19
MANTEO         FAIR      29  24  79 W8        30.21R WCI  22
CAPE HATTERAS  FAIR      36  30  79 W6        30.22R WCI  31
$$

NCZ078-087-090-091-093-098-101-191400-
SOUTHEASTERN NORTH CAROLINA

CITY           SKY/WX    TMP DP  RH WIND       PRES   REMARKS
LUMBERTON      FAIR      23  21  92 CALM      30.25R
GOLDSBORO      FAIR      29  22  77 SW5       30.21S WCI  23
KINSTON        FAIR      32  23  69 SW6       30.24R WCI  26
KENANSVILLE    FAIR      27  19  74 SW3       30.25R
NEW BERN       FAIR      31  21  66 W9        30.24R WCI  23
CHERRY POINT   CLEAR     32  23  69 W5          N/A  WCI  27
BEAUFORT       FAIR      35  22  58 W7        30.24R WCI  29
JACKSONVILLE   FAIR      32  21  64 W6        30.25R WCI  26
WILMINGTON     FAIR      31  20  63 SW5       30.25S WCI  26
$$




USA.gov is the U.S. government's official web portal to all federal, state and local government web resources and services.